Date,TemperatureHighF,TemperatureAvgF,TemperatureLowF,DewpointHighF,DewpointAvgF,DewpointLowF,HumidityHigh,HumidityAvg,HumidityLow,PressureMaxIn,PressureMinIn,WindSpeedMaxMPH,WindSpeedAvgMPH,GustSpeedMaxMPH,PrecipitationSumIn
2013-9-1,98.3,76.8,60.3,60.0,54.1,49.0,83,49,22,29.85,29.64,5,0,0,0.00
2013-9-2,95.7,78.0,64.9,62.0,57.8,53.0,83,53,27,29.86,29.68,8,0,0,0.00
2013-9-3,95.5,77.2,63.2,61.0,56.5,51.0,84,53,25,29.86,29.69,6,0,0,0.00
2013-9-4,95.4,76.9,60.7,56.0,50.6,39.0,78,46,20,29.93,29.77,4,0,0,0.00
2013-9-5,95.0,74.2,53.5,53.0,45.2,40.0,71,39,18,29.96,29.81,4,0,0,0.00
2013-9-6,94.2,71.8,51.5,51.0,44.9,42.0,73,43,19,29.98,29.77,9,0,0,0.00
2013-9-7,94.1,71.5,54.8,62.0,53.7,47.0,80,57,26,29.90,29.72,4,0,0,0.05
2013-9-8,92.6,72.9,53.9,58.0,52.6,50.0,88,54,24,29.84,29.61,7,0,0,0.00
2013-9-9,91.0,73.7,56.7,60.0,54.0,47.0,86,54,28,29.72,29.53,6,1,0,0.04
2013-9-10,73.8,65.4,61.0,64.0,60.0,56.0,94,83,58,29.86,29.67,2,0,0,0.60
2013-9-11,84.0,70.0,61.5,67.0,60.1,53.0,96,74,41,29.92,29.78,5,0,0,0.01
2013-9-12,73.9,65.4,58.0,68.0,61.0,56.0,96,86,68,29.90,29.78,3,0,0,0.50
2013-9-13,76.4,65.2,59.5,66.0,60.4,57.0,96,85,56,29.88,29.75,5,0,0,0.43
2013-9-14,77.9,65.2,58.8,64.0,59.6,56.0,96,83,51,29.85,29.73,4,0,0,0.93
2013-9-15,80.8,65.6,55.6,63.0,57.0,52.0,97,77,44,29.93,29.81,2,0,0,0.20
2013-9-16,82.8,66.4,53.5,61.0,55.4,51.0,96,71,38,30.02,29.85,6,0,0,0.00
2013-9-17,83.7,69.0,55.8,63.0,56.6,51.0,96,69,34,29.93,29.70,6,1,0,0.00
2013-9-18,86.4,70.7,61.4,63.0,58.6,55.0,90,68,35,29.76,29.60,8,1,0,0.00
2013-9-19,87.4,69.1,56.2,64.0,57.3,50.0,95,70,29,29.76,29.64,3,0,0,0.11
2013-9-20,85.6,68.3,53.3,59.0,53.4,49.0,90,62,34,29.89,29.74,4,0,0,0.00
2013-9-21,83.4,67.0,52.7,60.0,53.6,48.0,95,66,33,29.89,29.68,6,1,0,0.00
2013-9-22,82.2,65.9,52.6,58.0,53.3,47.0,95,67,32,29.72,29.39,11,2,0,0.05
2013-9-23,77.5,58.7,43.3,50.0,40.6,35.0,90,56,25,29.96,29.61,5,0,0,0.00
2013-9-24,81.6,59.5,42.3,49.0,43.0,40.0,94,61,24,30.07,29.85,5,0,0,0.00
2013-9-25,84.8,63.7,43.3,50.0,44.3,39.0,95,57,24,29.86,29.54,10,1,0,0.00
2013-9-26,85.4,65.7,45.3,52.0,42.3,37.0,93,50,18,29.67,29.51,11,1,0,0.00
2013-9-27,73.7,57.3,41.1,55.0,44.1,35.0,85,63,47,29.95,29.58,6,0,0,0.00
2013-9-28,74.1,50.3,32.3,39.0,31.4,22.0,93,58,16,30.19,29.96,5,0,0,0.00
2013-9-29,80.8,53.5,32.3,39.0,33.9,29.0,94,57,16,30.21,29.96,2,0,0,0.00
2013-9-30,86.1,58.6,38.0,42.0,36.2,32.0,90,51,16,30.00,29.76,4,0,0,0.00